Regional Weather Roundup
Issued by NWS

Home | Current Version | Previous Version | Text Only | Print | Product List | Glossary On
Versions: 1 2 3 4 5 6 7 8 9 10 11 12 13 14 15 16 17 18 19 20 21 22 23 24 25 26 27 28 29 30 31 32 33 34 35 36 37 38 39 40 41 42 43 44 45 46 47 48 49 50
535
ASUS43 KMKX 300511
RWRWI

WISCONSIN REGIONAL WEATHER ROUNDUP
NATIONAL WEATHER SERVICE MILWAUKEE/SULLIVAN WI
1200 AM CDT SUN APR 30 2017

NOTE: "FAIR" INDICATES FEW OR NO CLOUDS BELOW 12,000 FEET WITH NO
SIGNIFICANT WEATHER AND/OR OBSTRUCTIONS TO VISIBILITY.

WIZ001-002-006>008-014>016-023>028-300600-
NORTHWEST WISCONSIN

CITY           SKY/WX    TMP DP  RH WIND       PRES   REMARKS
SUPERIOR ARPT  CLOUDY    37  24  59 NE8       30.29F WCI  31
ASHLAND        CLOUDY    36  27  69 N7        30.30F WCI  30
HAYWARD        CLOUDY    40  20  44 NE9       30.25F WCI  34
SIREN          CLOUDY    42  20  42 CALM      30.24F
CUMBERLAND     CLOUDY    41  23  48 NE12      30.22F
RICE LAKE      CLOUDY    42  26  52 NE10      30.22F
CHETEK         CLOUDY    43  27  51 NE9G23    30.21S
LADYSMITH      CLOUDY    43  24  48 NE10      30.23S
EAU CLAIRE     CLOUDY    48  26  42 NE10      30.17S
MENOMONIE      CLOUDY    46  28  49 N9        30.18F
NEW RICHMOND   CLOUDY    44  26  49 NE12G17   30.20F
OSCEOLA        CLOUDY    45  26  47 NE9       30.23F
$$

WIZ003>005-009-010-017-018-300600-
NORTH CENTRAL WISCONSIN

CITY           SKY/WX    TMP DP  RH WIND       PRES   REMARKS
MANITOWISH WTR CLOUDY    36  22  57 NE5       30.25  WCI  32
ARBOR VITAE    CLOUDY    39  20  47 NE5       30.22F
WOODRUFF       CLOUDY    39  20  47 NE5       30.22F
RHINELANDER    CLOUDY    41  22  46 NE8       30.21F
EAGLE RIVER    CLOUDY    37  16  41 NE8       30.22F WCI  31
LAND O LAKES   CLOUDY    37  23  57 NE5       30.26F WCI  33
PHILLIPS       MOCLDY    39  23  52 NE9       30.22F WCI  33
TOMAHAWK       CLOUDY    41  21  45 NE7       30.21F
MEDFORD        CLOUDY    42  21  43 NE12G17   30.17F
MERRILL        CLOUDY    43  18  36 E13       30.19F
$$

WIZ029-030-035-036-043>047-300600-
CENTRAL WISCONSIN

CITY           SKY/WX    TMP DP  RH WIND       PRES   REMARKS
WAUSAU         CLOUDY    43  18  36 NE13G21   30.16F
MOSINEE        CLOUDY    41  23  48 NE16G22   30.17F
MARSHFIELD     CLOUDY    43  27  53 NE12      30.15F
STEVENS POINT  CLOUDY    42  21  44 E9        30.17F
WAUPACA        CLOUDY    45  26  46 NE9G25    30.15F
WAUTOMA        CLOUDY    44  27  51 NE18G25   30.14S
WISC RAPIDS    CLOUDY    45  25  45 E9G21     30.17R
CAMP DOUGLAS   CLOUDY    44  27  49 E13G18    30.13F
$$

WIZ011>013-019>022-031-037>040-048>050-300600-
NORTHEAST WISCONSIN

CITY           SKY/WX    TMP DP  RH WIND       PRES   REMARKS
ANTIGO         CLOUDY    38  19  46 NE15G21   30.18F WCI  30
SHAWANO        CLOUDY    45  26  47 E17G25    30.19S
OCONTO         CLOUDY    42  26  55 NE14G20   30.21S
STURGEON BAY   CLOUDY    41  28  60 NE17G26   30.19F
GREEN BAY      CLOUDY    43  34  70 NE28G36   30.17S
MANITOWOC      CLOUDY    40  33  76 NE15      30.14F WCI  32
APPLETON       CLOUDY    43  27  52 NE14G21   30.11F
CLINTONVILLE   CLOUDY    43  23  45 NE17      30.16F
OSHKOSH        CLOUDY    43  29  57 NE23G33   30.11F
$$

WIZ032>034-041-042-053>061-300600-
SOUTHWEST WISCONSIN

CITY           SKY/WX    TMP DP  RH WIND       PRES   REMARKS
LA CROSSE      CLOUDY    48  26  42 NE17G28   30.13F
SPARTA         CLOUDY    45  29  54 NE7G16    30.15R
VIROQUA        CLOUDY    42  28  58 NE14      30.10S
BOSCOBEL       CLOUDY    45  29  53 NE10G20   30.10F
PRAIRIE DU CHI CLOUDY    44  28  53 NE12      30.09S
PLATTEVILLE    CLOUDY    39  39 100 NE15G21   30.05F WCI  31
$$

WIZ056-057-062-063-064-067-068-300600-
SOUTH CENTRAL WISCONSIN

CITY           SKY/WX    TMP DP  RH WIND       PRES   REMARKS
REEDSBURG      CLOUDY    42  29  58 NE16G23   30.11F
BARABOO/DELLS  CLOUDY    42  30  63 NE12G21   30.12R
LONE ROCK      LGT RAIN  41  34  76 NE15      30.11R
MINERAL POINT  RAIN      39  39 100 NE14G21   30.07S WCI  31
MADISON        LGT RAIN  39  36  89 NE12      30.12R WCI  32
MIDDLETON      CLOUDY    40  38  91 NE8       30.11R WCI  35
WATERTOWN      LGT RAIN  40  40 100 E7        30.11R WCI  35
MONROE         DRIZZLE   37  37 100 NE16      30.05S WCI  28
JANESVILLE     DRIZZLE   41  41 100 NE10      30.04F
$$

WIZ051-052-058>065-066-070>072-300600-
SOUTHEAST WISCONSIN

CITY           SKY/WX    TMP DP  RH WIND       PRES   REMARKS
MILWAUKEE      CLOUDY    42  40  92 NE15      30.11R
WAUKESHA       CLOUDY    37  37 100 E7        30.13R WCI  32
MILWAUKEE/TIMM DRIZZLE   39  36  87 NE12G18   30.11R WCI  32
RACINE         LGT RAIN  42  40  92 NE10      30.11R
KENOSHA        RAIN      43  41  93 NE12G21   30.09R FOG
FOND DU LAC    LGT RAIN  41  30  65 NE17G25   30.11F
SHEBOYGAN      LGT RAIN  40  36  86 NE21G26   30.10F WCI  30
WEST BEND      CLOUDY    37  37 100 NE15G24   30.09R WCI  28
JUNEAU         RAIN      39  37  92 NE9       30.10R WCI  32
$$

LSZ147-162-300600-
LAKE SUPERIOR

STATION/POSITION TIME  TEMP    WIND        PRES    WAVE
                       AIR SEA DIR/SP/G            HT/PER
                 (UTC) (F)     (DEG/KT/KT) (MB)    (FT/S)
DEVILS ISLAND    0500   37      50/ 11/ 11 1027.5F
PORT WING        0440   38      30/ 10/ 12 1026.1F
SAXON HARBOR     0440   35      CALM  /  2 1025.7F
$$

LMZ867-665-643>646-300600-
LAKE MICHIGAN

STATION/POSITION TIME  TEMP    WIND        PRES    WAVE
                       AIR SEA DIR/SP/G            HT/PER
                 (UTC) (F)     (DEG/KT/KT) (MB)    (FT/S)
CHAMBERS ISLAND  0440   39      20/ 21/ 24 1022.7F
N MID LAKE BUOY  0450   38 37   50/ 19/ 21 1024.9F   2/ 4
NORTHPORT PIER   0440   40      40/ 12/ 17 1023.4F
KEWAUNEE LAKESHO 0448   41      40/ 21/ 27 1020.7F
SHEBOYGAN LAKESH 0500   40      30/ 23/ 26 1019.6F
PORT WASHINGTON  0440   41      40/ 19/ 26 1019.3F
MILWAUKEE LAKESH 0450   41      40/ 17/ 19   N/A
S MID LAKE BUOY  0350   42 41   50/ 25/ 31 1015.9F   5/ 6
KENOSHA   LAKESH 0500   43      40/ 16/ 19 1018.6
$$

TC  - TEMPERATURE IN CELSIUS
VSB - VISIBILITY IN STATUTE MILES
WCI - WIND CHILL INDEX
HX  - HEAT INDEX





USA.gov is the U.S. government's official web portal to all federal, state and local government web resources and services.